Lancaster, PA

3:41 PM EST on February 11, 2016 (GMT -0500)
Lancaster

Weather History for KLNS - October, 2012

Change the Weather History Date:

Thursday, October 25, 2012

  Actual Average Record
Temperature  
Mean Temperature 59 °F -  
Max Temperature 63 °F 63 °F 72 °F (1989)
Min Temperature 57 °F 39 °F 28 °F (1978)
Degree Days  
Heating Degree Days 6    
Growing Degree Days 9 (Base 50)    
Moisture  
Dew Point 56 °F    
Average Humidity 90    
Maximum Humidity 100    
Minimum Humidity 82    
Precipitation  
Precipitation 0.00 in - - ()
Sea Level Pressure  
Sea Level Pressure 30.20 in    
Wind  
Wind Speed 6 mph (ESE)    
Max Wind Speed 10 mph    
Max Gust Speed -    
Visibility 3 miles    
Events      
Averages and records for this station are not official NWS values.
T = Trace of Precipitation, MM = Missing Value Source: NWS Daily Summary

Daily Weather History Graph

Daily Weather History Graph

Search for Another Location

Airport or City:

Trip Planner

Search our weather history database for the weather conditions in past years. The results will help you decide how hot, cold, wet, or windy it might be!

Date:

Astronomy

Oct. 25, 2012 Rise Set
Actual Time 7:27 AM EDT 6:10 PM EDT
Civil Twilight 6:59 AM EDT 6:38 PM EDT
Nautical Twilight 6:27 AM EDT 7:10 PM EDT
Astronomical Twilight 5:56 AM EDT 7:41 PM EDT
Moon 3:55 PM EDT (10/25) 3:21 AM EDT (10/25)
Length of Visible Light 11h 39m
Length of Day
10h 43m
Waxing Gibbous, 84% of the Moon is Illuminated
Oct 25
Waxing Gibbous
Oct 29
Full
Nov 6
Last Quarter
Nov 13
New
Nov 20
First Quarter

Hourly Weather History & Observations

Time (EDT) Temp. Dew Point Humidity Pressure Visibility Wind Dir Wind Speed Gust Speed Precip Events Conditions
12:53 AM 61.0 °F 57.9 °F 90% 30.16 in 3.0 mi ESE 10.4 mph - N/A   Overcast
1:08 AM 60.8 °F 57.2 °F 88% 30.16 in 3.0 mi ESE 8.1 mph - N/A   Overcast
1:21 AM 60.8 °F 57.2 °F 88% 30.17 in 2.5 mi ESE 8.1 mph - N/A   Overcast
1:50 AM 60.8 °F 57.2 °F 88% 30.17 in 3.0 mi ESE 5.8 mph - N/A   Overcast
1:53 AM 60.1 °F 57.0 °F 90% 30.17 in 3.0 mi ESE 6.9 mph - N/A   Overcast
2:53 AM 59.0 °F 57.0 °F 93% 30.17 in 3.0 mi East 5.8 mph - N/A   Overcast
3:01 AM 59.0 °F 57.2 °F 94% 30.18 in 2.5 mi East 5.8 mph - N/A   Overcast
3:50 AM 57.2 °F 57.2 °F 100% 30.17 in 2.0 mi ESE 5.8 mph - N/A   Overcast
3:53 AM 57.9 °F 57.0 °F 97% 30.17 in 2.0 mi East 5.8 mph - N/A   Overcast
4:07 AM 57.2 °F 57.2 °F 100% 30.17 in 1.8 mi East 5.8 mph - N/A   Overcast
4:53 AM 57.9 °F 57.0 °F 97% 30.17 in 1.5 mi East 4.6 mph - N/A   Overcast
5:53 AM 57.9 °F 57.0 °F 97% 30.19 in 1.0 mi ESE 4.6 mph - N/A   Overcast
6:53 AM 57.9 °F 57.0 °F 97% 30.20 in 1.0 mi ESE 3.5 mph - N/A   Overcast
7:53 AM 57.9 °F 57.0 °F 97% 30.21 in 1.0 mi ESE 3.5 mph - N/A   Overcast
8:00 AM 57.2 °F 57.2 °F 100% 30.22 in 0.8 mi ESE 4.6 mph - N/A   Overcast
8:15 AM 57.2 °F 55.4 °F 94% 30.22 in 1.2 mi ESE 4.6 mph - N/A   Overcast
8:40 AM 57.2 °F 55.4 °F 94% 30.22 in 1.5 mi SE 5.8 mph - N/A   Overcast
8:53 AM 57.9 °F 55.9 °F 93% 30.22 in 1.8 mi SE 5.8 mph - N/A   Overcast
9:27 AM 57.2 °F 55.4 °F 94% 30.23 in 2.0 mi ESE 4.6 mph - N/A   Overcast
9:53 AM 59.0 °F 55.9 °F 90% 30.23 in 2.5 mi ESE 4.6 mph - N/A   Overcast
10:13 AM 59.0 °F 55.4 °F 88% 30.24 in 3.0 mi SE 5.8 mph - N/A   Overcast
10:53 AM 59.0 °F 55.9 °F 90% 30.24 in 4.0 mi SE 8.1 mph - N/A   Overcast
11:53 AM 59.0 °F 55.9 °F 90% 30.23 in 3.0 mi ESE 4.6 mph - N/A   Overcast
12:44 PM 60.8 °F 55.4 °F 82% 30.23 in 4.0 mi ESE 4.6 mph - N/A   Overcast
12:53 PM 60.1 °F 55.9 °F 86% 30.22 in 4.0 mi ESE 5.8 mph - N/A   Overcast
1:53 PM 61.0 °F 55.9 °F 83% 30.22 in 3.0 mi SE 4.6 mph - N/A   Haze
2:53 PM 60.1 °F 55.9 °F 86% 30.21 in 3.0 mi SE 8.1 mph - N/A   Overcast
3:53 PM 61.0 °F 55.9 °F 83% 30.21 in 3.0 mi SE 6.9 mph - N/A   Haze
4:53 PM 61.0 °F 55.9 °F 83% 30.20 in 4.0 mi SE 5.8 mph - N/A   Haze
5:01 PM 60.8 °F 55.4 °F 82% 30.21 in 4.0 mi SE 4.6 mph - N/A   Haze
5:53 PM 61.0 °F 57.0 °F 87% 30.21 in 4.0 mi ESE 3.5 mph - N/A   Overcast
6:53 PM 61.0 °F 55.9 °F 83% 30.21 in 4.0 mi ESE 3.5 mph - N/A   Haze
7:53 PM 60.1 °F 55.9 °F 86% 30.22 in 4.0 mi East 3.5 mph - N/A   Overcast
9:53 PM 60.1 °F 55.9 °F 86% 30.21 in 4.0 mi ESE 5.8 mph - N/A   Overcast
10:53 PM 60.1 °F 55.9 °F 86% 30.20 in 4.0 mi ESE 5.8 mph - N/A   Overcast